EHI
4 7 15 21 17 8 2 0 0 0 0 0 0 0 0 0 0 1 1 3 8 9 6 5 6 5 4 3 3 2 3 2 1 0 1 2 2 1 1 2 3 3 3 3 1 0 1 4 6
5 10 18 19 13 5 1 0 0 0 0 0 0 0 0 0 0 1 2 3 7 8 6 5 5 5 4 4 3 2 3 2 1 0 1 1 1 0 0 1 1 2 3 3 2 1 1 3 5
8 14 20 17 7 1 0 0 0 0 0 0 0 0 0 0 0 1 2 4 7 7 6 6 5 5 6 5 3 2 2 2 1 0 0 0 0 0 0 0 0 1 2 3 2 1 1 1 2
14 19 22 14 4 0 0 0 0 0 0 0 0 0 0 0 0 1 3 5 7 7 8 8 7 6 5 4 2 1 1 1 1 0 0 0 0 0 0 0 0 1 1 1 2 2 2 1 1
19 21 20 11 2 0 0 0 0 0 0 0 0 0 0 0 0 2 5 7 8 8 10 12 12 10 7 3 1 1 2 2 2 1 0 0 0 0 0 0 0 1 2 1 1 2 2 1 1
19 19 15 6 1 0 0 0 0 0 0 0 0 0 0 0 0 1 5 8 9 9 11 12 13 13 9 5 2 2 3 3 3 3 2 1 1 1 1 1 1 2 2 1 1 2 2 3 3
16 15 10 3 0 0 0 0 0 0 0 0 0 0 0 1 1 2 4 8 9 9 8 8 9 10 9 8 6 4 4 4 4 5 5 5 4 4 5 4 4 4 3 3 3 4 5 5 6
11 10 6 2 0 0 0 0 0 0 0 0 0 0 1 2 3 3 4 6 7 6 5 4 4 6 7 7 6 6 5 5 6 6 6 7 7 8 9 9 8 7 6 5 5 6 7 7 7
7 6 3 1 0 0 0 0 0 0 0 0 0 2 3 3 4 3 4 5 5 5 5 5 5 5 5 5 5 5 6 6 6 6 6 7 8 11 12 12 12 11 9 7 6 7 8 8 8
4 2 1 0 0 0 0 0 0 0 0 0 2 5 6 4 3 2 2 4 4 5 5 6 6 5 4 4 4 4 4 5 5 6 7 8 9 11 12 13 15 15 12 9 8 8 9 9 8
1 0 0 0 0 0 0 0 0 0 0 1 4 7 7 5 3 2 1 2 3 4 5 5 5 5 4 5 5 3 4 5 6 7 9 10 10 11 12 13 15 14 12 10 9 9 8 7 7
0 0 0 0 0 0 0 0 0 0 0 2 5 6 5 4 4 2 1 1 2 3 4 5 6 6 6 6 7 5 5 7 8 9 10 10 11 11 12 13 12 11 11 11 9 8 7 6 5
0 1 1 1 0 0 0 0 0 0 0 2 4 4 2 3 4 3 2 2 3 4 5 5 8 11 12 12 9 8 8 8 9 10 9 8 9 11 12 12 11 11 12 12 9 7 6 5 4
1 1 2 1 0 0 0 0 0 1 1 2 4 4 1 1 3 4 4 4 4 5 6 7 10 16 19 16 12 10 9 8 8 8 9 8 8 11 13 13 12 11 13 14 12 10 8 6 5
0 1 1 0 0 0 0 1 1 2 3 5 6 5 3 3 3 4 6 6 5 5 8 8 10 16 20 16 12 10 9 8 8 9 9 9 10 13 15 14 13 12 13 15 14 12 10 6 4
0 0 0 0 0 1 1 2 3 4 5 7 7 6 6 7 7 5 6 9 10 10 12 11 10 13 17 16 13 10 9 8 9 10 10 10 11 14 16 13 12 13 13 13 12 11 11 8 6
0 0 0 0 1 1 1 2 3 4 6 6 6 6 7 10 10 9 9 13 18 21 22 20 16 15 16 16 14 10 8 9 9 10 12 13 13 15 17 15 13 13 14 12 9 11 13 11 9
0 0 0 0 1 0 0 1 1 3 5 5 4 4 6 9 11 12 13 18 25 32 33 30 27 24 20 16 13 10 8 9 10 12 16 18 16 17 18 16 14 14 14 13 9 10 13 13 11
0 0 0 0 0 0 0 0 1 3 4 4 3 2 4 8 12 16 19 22 30 39 40 38 36 34 28 22 17 12 9 9 10 13 19 21 18 16 16 13 13 13 14 15 12 11 12 11 11
0 0 0 0 0 0 0 0 1 2 3 3 3 2 4 8 15 21 25 28 33 40 42 40 41 40 35 30 25 17 12 10 9 13 20 21 16 14 13 13 12 12 13 15 15 14 12 10 10
0 0 0 0 0 0 0 0 1 2 3 4 4 3 4 9 14 20 26 29 33 37 39 40 43 42 38 33 26 19 15 13 13 17 22 22 17 15 14 15 15 12 12 14 15 15 13 11 10
0 0 0 0 0 0 0 0 2 3 5 5 6 6 7 10 14 19 25 29 31 33 36 40 43 43 40 33 25 19 17 17 19 23 25 25 23 20 17 17 18 16 14 14 14 14 14 12 11
0 0 0 0 0 0 0 0 1 4 6 7 7 8 9 12 15 19 25 29 29 30 34 40 46 47 43 37 29 22 18 18 20 24 28 29 29 27 22 19 20 19 17 16 14 15 15 13 10
0 0 0 0 0 0 0 0 1 3 6 8 9 10 11 12 14 19 25 29 30 29 34 42 47 49 47 42 35 27 23 20 20 23 28 30 30 28 25 23 23 22 21 19 18 18 17 14 10
0 0 0 0 0 0 0 0 1 4 6 8 10 12 13 12 14 17 23 28 30 31 36 44 48 49 48 44 39 34 29 25 23 23 26 27 27 28 27 26 26 25 24 23 23 22 19 15 12
0 0 0 0 0 0 0 0 2 5 6 6 9 13 15 15 15 17 22 27 29 31 37 45 49 49 47 45 42 40 36 31 27 26 25 27 29 30 31 31 29 27 26 26 27 25 22 17 14
0 0 0 0 0 0 0 1 3 6 6 5 8 12 16 17 17 19 23 26 28 30 35 43 49 50 47 44 42 41 39 36 34 31 27 28 30 32 35 36 33 31 28 27 28 28 26 21 16
0 0 0 0 0 0 0 1 4 6 6 6 7 11 15 18 19 21 26 28 27 27 32 40 46 48 46 43 40 39 40 40 39 36 31 28 29 31 35 37 35 33 31 29 28 29 29 25 20
0 0 0 0 0 0 0 1 3 6 6 6 6 9 12 16 19 23 27 29 27 25 30 37 42 45 45 44 41 40 43 44 42 39 35 31 28 31 34 34 32 31 30 29 28 28 29 28 25
0 0 0 0 0 0 0 1 3 6 5 4 5 6 10 14 18 22 26 28 27 26 29 35 40 43 45 45 43 42 43 45 42 40 38 33 29 30 32 32 30 29 28 28 26 26 28 29 29
Wind_Speed
9 10 8 5 4 3 4 9 10 10 10 10 10 10 12 11 8 7 5 5 10 12 12 11 11 11 11 11 11 10 9 9 9 8 8 8 8 8 8 8 8 8 8 7 7 7 7 7 6
9 10 6 3 2 2 8 9 11 10 8 7 9 11 11 12 10 8 7 7 11 12 11 12 12 11 10 10 10 9 9 8 8 8 7 7 8 8 7 7 7 7 7 7 7 6 6 6 5
11 11 5 3 1 6 8 9 8 8 8 8 9 10 9 9 9 8 7 8 10 12 13 13 13 11 10 10 9 8 8 7 7 7 7 7 7 7 7 7 7 7 7 7 7 6 5 5 4
7 6 4 3 4 8 8 8 7 9 10 9 9 9 10 9 8 9 8 8 9 12 13 13 13 11 11 10 9 9 8 7 7 7 7 7 7 7 7 7 7 7 7 7 6 5 5 4 3
8 4 2 1 6 8 8 8 8 9 9 10 12 12 11 10 10 9 8 8 8 10 12 13 13 12 11 11 9 9 8 7 7 7 7 7 7 7 7 7 7 7 7 6 6 6 5 4 4
4 3 2 3 8 7 8 9 9 9 10 10 11 11 10 9 8 8 8 7 8 9 10 12 13 13 12 11 10 9 8 7 7 7 7 7 7 7 7 7 7 7 7 6 6 5 5 5 4
5 3 3 4 7 7 8 8 9 10 10 10 9 10 9 9 8 7 8 7 7 9 8 9 11 11 11 11 10 9 8 7 7 7 7 8 8 7 7 7 7 7 7 6 6 5 5 5 5
4 4 4 4 7 8 7 9 10 12 10 9 8 8 9 9 9 8 7 7 7 7 7 8 8 8 8 9 10 9 8 7 7 7 7 8 8 8 8 7 7 7 7 6 6 6 6 6 6
5 3 3 6 7 7 7 8 10 11 9 9 10 12 12 12 10 9 7 7 6 6 6 6 7 6 6 6 9 8 8 7 7 6 7 7 5 6 6 7 8 8 8 7 7 7 7 7 7
3 1 3 5 6 6 5 7 7 8 8 9 11 13 13 11 9 8 7 6 6 6 5 5 6 5 4 4 5 4 5 5 4 4 5 5 4 3 5 8 10 10 9 9 9 8 8 7 4
1 0 1 4 4 5 5 6 6 8 8 9 9 11 12 11 8 7 7 6 6 6 5 5 5 4 3 2 3 2 2 3 3 3 4 3 3 3 4 4 5 6 8 6 6 7 5 4 3
3 1 2 3 3 4 5 6 8 8 8 9 10 10 10 11 9 7 7 7 6 6 5 5 5 4 3 2 1 2 2 2 2 3 3 3 2 2 2 2 3 3 3 3 3 3 4 4 3
2 1 1 2 3 4 4 6 7 7 8 10 11 10 9 10 9 8 7 7 7 6 5 5 5 4 3 2 0 1 1 2 3 3 2 2 2 2 2 1 2 2 2 2 2 2 2 2 2
2 2 2 2 2 3 3 4 6 7 9 10 9 8 8 8 9 8 7 7 7 6 6 5 5 5 3 2 0 1 1 2 2 3 3 2 1 2 2 2 1 1 2 2 2 3 2 2 1
5 5 4 3 4 3 4 4 6 7 9 9 8 7 7 8 7 8 7 7 7 6 6 6 6 5 3 2 1 1 1 2 2 2 3 3 2 2 2 2 1 1 2 2 2 2 1 2 2
8 6 4 3 5 5 3 3 6 6 8 8 8 7 7 7 7 7 7 7 6 6 5 4 5 6 4 2 1 0 1 1 2 2 3 3 2 2 2 2 1 1 1 2 2 2 1 1 1
7 7 6 4 5 5 5 4 6 6 7 7 7 8 7 7 7 8 8 9 8 6 6 5 4 4 4 3 2 1 1 1 1 2 2 3 3 2 2 2 1 2 1 1 2 2 1 1 1
5 4 4 4 3 4 5 5 7 7 7 7 6 7 7 8 7 7 8 9 8 8 6 6 5 3 3 3 2 1 1 1 1 1 2 3 2 2 2 2 2 1 1 1 1 1 2 2 2
5 5 6 2 3 3 4 6 6 7 7 7 6 7 6 7 8 8 8 8 8 8 6 5 5 4 2 2 1 1 1 1 1 1 3 2 2 2 1 1 2 1 1 1 2 2 3 2 2
6 7 7 5 5 4 4 5 6 6 6 7 7 7 8 7 7 7 7 8 8 8 7 5 5 4 3 3 2 1 1 1 1 1 2 2 2 1 1 1 1 1 1 2 2 1 1 2 2
9 8 7 6 5 5 5 5 6 7 6 6 7 7 9 10 9 9 8 8 8 7 7 6 5 4 3 3 2 1 1 1 1 1 1 2 2 2 1 2 0 1 1 1 1 1 2 1 1
9 6 6 7 7 6 6 3 4 5 7 6 6 6 7 9 10 9 8 8 8 9 8 6 5 4 4 3 2 2 2 1 1 1 1 2 2 2 2 2 1 0 0 1 1 1 1 1 1
8 7 7 9 8 7 7 6 4 5 6 6 6 6 6 7 9 9 10 8 8 9 9 8 6 4 4 3 2 1 1 1 1 1 2 1 1 1 1 1 1 1 0 0 1 0 1 1 1
6 9 9 9 8 9 9 7 4 5 5 5 5 6 6 7 7 8 8 8 7 8 8 9 7 5 5 4 4 3 2 1 1 1 1 2 1 1 1 1 1 1 1 1 1 0 1 1 1
7 7 6 7 7 7 5 4 2 3 4 5 5 4 5 6 7 7 7 8 6 7 8 8 8 6 5 5 4 3 2 2 2 2 2 1 1 1 2 1 1 1 1 1 1 1 1 1 1
8 9 8 8 7 5 4 2 3 5 5 6 5 4 4 5 6 8 9 8 7 7 7 8 8 7 6 5 4 3 3 3 2 1 1 1 1 1 2 2 1 1 1 1 1 1 2 1 1
10 10 11 9 9 7 5 1 4 6 5 5 6 5 3 4 6 7 8 8 7 7 7 7 7 7 6 5 4 3 3 2 2 1 2 1 0 1 1 2 1 1 1 1 1 2 1 1 2
10 9 8 6 6 7 6 3 2 5 6 4 5 5 4 4 5 5 6 7 7 7 6 6 6 6 5 5 4 4 4 3 2 1 1 0 0 0 0 1 1 1 1 1 1 2 2 2 2
10 9 6 6 6 7 6 3 2 5 6 4 4 5 4 4 5 4 4 5 5 6 6 6 5 5 4 4 4 3 3 3 3 2 2 1 1 1 1 1 1 1 1 1 1 2 1 2 2
9 8 7 6 6 7 6 2 2 5 5 5 4 4 3 4 4 5 5 5 4 4 5 6 6 5 4 3 3 3 3 2 2 2 2 2 2 2 1 1 1 2 1 1 2 2 2 2 2
Wind_Direction
200 215 221 243 250 248 52 61 53 49 48 40 40 52 55 45 50 80 105 106 105 113 117 117 115 116 116 117 119 124 124 127 131 132 130 132 135 132 128 127 129 130 133 134 135 133 134 136 135
220 217 222 245 272 26 59 60 61 62 63 57 56 59 62 61 72 95 102 99 107 116 118 117 118 118 120 124 125 125 126 128 132 136 136 136 139 139 139 139 138 137 138 139 138 135 138 142 145
247 243 244 237 16 52 62 63 67 75 71 68 67 61 57 64 73 92 101 111 111 113 114 118 123 121 122 124 130 130 127 129 133 137 139 142 144 147 150 148 146 144 143 141 143 144 145 146 151
238 229 241 281 35 64 64 71 69 78 72 66 73 72 73 69 77 97 111 113 111 115 118 124 127 128 130 129 128 130 130 131 134 136 141 144 149 154 155 154 153 150 145 142 146 147 150 153 159
237 257 261 342 52 68 73 74 72 73 75 76 80 85 83 81 90 103 111 111 111 111 119 129 133 135 136 135 134 134 134 133 135 139 142 145 148 150 152 150 151 150 147 149 152 157 162 168 183
257 258 285 58 63 58 68 70 73 72 80 84 90 94 92 98 98 101 100 105 110 112 121 133 139 140 142 142 141 141 140 139 142 147 151 151 152 151 149 153 154 152 153 156 158 163 173 186 204
255 284 314 60 76 65 64 66 66 72 71 79 89 98 107 105 103 102 105 110 104 105 113 135 144 145 147 149 149 147 146 145 152 157 159 160 160 158 157 160 163 162 164 169 172 177 188 201 216
268 300 347 48 73 75 62 62 65 72 66 76 91 97 115 120 119 113 105 101 96 105 116 124 134 141 150 154 157 155 156 156 163 168 171 172 170 170 171 168 169 174 179 184 183 188 200 210 223
271 296 0 40 64 68 67 77 80 82 79 71 77 101 119 125 123 116 112 109 103 104 111 120 127 138 149 149 148 159 167 167 171 175 180 181 182 181 180 175 177 183 190 196 197 202 208 216 227
208 341 17 42 72 78 68 77 94 101 95 91 90 102 118 124 126 125 122 120 116 110 110 109 115 121 124 127 136 164 167 164 177 166 172 180 184 177 173 171 181 189 197 206 210 213 219 219 222
265 129 34 48 68 94 88 75 71 82 83 93 103 117 130 130 130 130 125 122 116 116 108 108 101 96 106 107 134 157 155 154 169 163 165 169 175 175 175 170 181 195 202 211 209 214 221 217 217
263 50 30 73 68 84 89 85 72 70 84 104 112 123 134 138 138 133 129 126 121 116 114 115 113 104 93 92 108 137 141 153 159 154 165 172 179 177 169 173 172 187 199 202 208 214 217 216 218
277 82 22 82 89 82 86 95 94 91 99 109 119 129 136 139 140 139 132 131 129 124 120 111 115 112 101 78 12 121 125 155 160 143 160 170 166 163 165 169 170 188 190 193 204 219 229 219 223
234 217 188 164 159 145 126 110 108 114 114 115 122 128 131 134 140 139 138 138 134 133 134 121 118 113 108 116 123 50 130 145 138 130 139 158 149 138 154 164 174 202 190 195 196 198 212 226 212
237 230 206 199 200 180 138 113 110 125 127 127 129 132 132 137 144 145 144 143 143 142 138 135 131 125 118 136 167 147 192 142 142 133 137 149 159 151 172 159 177 200 184 187 188 196 194 208 207
250 242 225 217 218 184 167 123 124 141 134 133 134 133 134 139 144 141 145 146 144 138 130 131 133 129 134 140 150 160 94 91 119 130 129 144 155 159 154 156 190 201 194 190 173 174 178 202 221
245 236 224 202 220 198 159 156 155 156 139 141 145 145 149 147 147 148 154 153 147 137 131 128 119 127 133 143 169 158 103 94 102 112 122 139 158 168 161 168 186 198 182 175 195 148 168 202 212
267 248 240 217 208 205 148 154 157 164 149 155 158 153 157 152 152 153 157 148 144 142 138 138 134 134 146 149 149 143 112 114 107 110 118 124 151 161 171 166 178 199 167 173 173 156 180 210 219
271 279 275 245 230 236 166 161 161 165 166 165 160 155 159 156 153 151 148 145 143 141 144 148 149 148 143 143 150 160 153 152 127 118 109 118 130 130 158 146 165 195 171 182 191 194 205 208 208
260 257 267 249 232 227 190 169 165 173 185 173 168 159 158 152 144 141 152 153 149 150 149 152 158 156 159 148 148 177 185 162 137 91 116 122 118 125 153 114 177 182 171 179 203 211 238 241 204
256 253 260 272 266 241 229 198 182 180 182 178 173 165 157 157 159 160 168 162 159 158 161 165 160 155 168 166 171 175 166 179 154 141 145 138 146 144 107 124 154 201 181 156 202 215 216 244 253
267 262 264 275 271 268 254 243 183 190 180 183 176 167 160 160 163 163 165 171 171 165 163 153 156 162 168 172 180 183 161 164 175 149 133 142 156 157 151 149 171 208 173 141 224 170 239 224 251
272 283 276 270 270 272 265 264 197 184 193 178 169 160 157 165 161 166 172 172 177 168 162 158 155 165 168 181 184 185 201 181 136 114 133 159 145 161 147 146 155 159 214 173 281 91 290 264 258
267 275 273 269 263 252 246 245 212 193 187 166 164 161 164 158 160 161 163 162 173 169 163 154 153 164 175 186 185 187 201 191 158 172 178 182 161 173 160 139 144 191 212 196 220 230 261 291 322
251 263 264 256 245 252 253 244 170 145 139 143 157 158 158 162 157 155 153 162 166 168 159 150 153 165 178 186 187 187 194 218 219 222 203 203 171 169 162 167 184 217 220 216 211 221 264 265 265
238 246 253 270 275 262 237 215 138 120 112 119 131 141 142 159 151 147 154 160 163 170 159 154 157 166 177 183 183 181 197 222 219 231 236 215 203 177 147 170 197 216 211 219 198 215 218 228 244
246 250 258 265 279 285 282 137 139 132 113 117 129 126 139 148 147 145 150 151 158 165 164 162 160 168 176 181 178 184 199 218 204 191 232 239 230 195 126 167 186 205 209 233 214 217 227 213 228
253 267 276 269 273 275 271 241 179 147 123 124 123 129 146 156 142 143 142 145 156 158 150 148 154 163 168 174 187 185 190 193 188 200 174 237 295 18 170 187 182 214 223 234 245 231 216 213 222
241 246 261 290 284 275 277 292 148 149 139 137 128 129 141 151 146 132 129 129 140 150 153 148 154 149 157 172 189 177 167 176 183 191 198 223 230 217 223 246 234 237 237 234 232 240 237 228 236
261 257 245 252 268 277 276 248 138 112 126 118 113 113 120 126 131 128 128 123 124 143 155 151 156 157 160 169 175 180 167 178 188 200 210 214 225 230 224 224 231 233 224 236 250 253 249 234 230